• In Belarus
  • List of Countries
  • For 7 days
  • Water Temperature
  • Satellite Maps
  • Weather Map
  • Weather Widgets
  • user-avatar
    Login

    Hourly Weather Marrakesh

    Today, 17 December, Monday

    Time Temperature Precipitation Wind Pressure Humidity
    00:00 +16°C° 0 mm 1 mps 728 mmHg 46%
    01:00 +15°C° 0 mm 1 mps 727 mmHg 46%
    02:00 +15°C° 0 mm 1 mps 727 mmHg 46%
    03:00 +15°C° 0 mm 1 mps 727 mmHg 47%
    04:00 +14°C° 0 mm 1 mps 727 mmHg 49%
    05:00 +14°C° 0 mm 1 mps 727 mmHg 51%
    06:00 +15°C° 0 mm 1 mps 728 mmHg 48%
    07:00 +16°C° 0 mm 1 mps 728 mmHg 44%
    08:00 +19°C° 0 mm 1 mps 728 mmHg 41%
    09:00 +20°C° 0 mm 1 mps 728 mmHg 36%
    10:00 +21°C° 0 mm 2 mps 728 mmHg 32%
    11:00 +23°C° 0 mm 2 mps 728 mmHg 27%
    12:00 +24°C° 0 mm 2 mps 728 mmHg 26%
    13:00 +24°C° 0 mm 2 mps 727 mmHg 25%
    14:00 +25°C° 0 mm 2 mps 727 mmHg 24%
    15:00 +23°C° 0 mm 1 mps 727 mmHg 29%
    16:00 +22°C° 0 mm 1 mps 727 mmHg 33%
    17:00 +18°C° 0 mm 0 mps 727 mmHg 38%
    18:00 +18°C° 0 mm 0 mps 727 mmHg 39%
    19:00 +17°C° 0 mm 0 mps 727 mmHg 40%
    20:00 +17°C° 0 mm 0 mps 727 mmHg 41%
    21:00 +18°C° 0 mm 1 mps 727 mmHg 41%
    22:00 +18°C° 0 mm 1 mps 727 mmHg 42%
    23:00 +18°C° 0 mm 1 mps 727 mmHg 43%

    Tomorrow, 18 December, Tuesday

    Time Temperature Precipitation Wind Pressure Humidity
    00:00 +16°C° 0 mm 1 mps 727 mmHg 44%
    01:00 +16°C° 0 mm 1 mps 727 mmHg 45%
    02:00 +15°C° 0 mm 1 mps 726 mmHg 45%
    03:00 +15°C° 0 mm 1 mps 726 mmHg 46%
    04:00 +15°C° 0 mm 1 mps 726 mmHg 46%
    05:00 +15°C° 0 mm 1 mps 726 mmHg 47%
    06:00 +16°C° 0 mm 1 mps 727 mmHg 44%
    07:00 +18°C° 0 mm 1 mps 727 mmHg 42%
    08:00 +19°C° 0 mm 1 mps 728 mmHg 40%
    09:00 +21°C° 0 mm 1 mps 728 mmHg 36%
    10:00 +21°C° 0 mm 2 mps 728 mmHg 33%
    11:00 +23°C° 0 mm 2 mps 729 mmHg 30%
    12:00 +24°C° 0 mm 2 mps 728 mmHg 29%
    13:00 +24°C° 0 mm 3 mps 728 mmHg 28%
    14:00 +24°C° 0 mm 3 mps 727 mmHg 27%
    15:00 +23°C° 0 mm 2 mps 727 mmHg 30%
    16:00 +20°C° 0 mm 2 mps 727 mmHg 34%
    17:00 +20°C° 0 mm 1 mps 727 mmHg 38%
    18:00 +19°C° 0 mm 1 mps 728 mmHg 41%
    19:00 +19°C° 0 mm 1 mps 728 mmHg 43%
    20:00 +16°C° 0 mm 0 mps 728 mmHg 46%
    21:00 +15°C° 0 mm 0 mps 728 mmHg 48%
    22:00 +15°C° 0 mm 0 mps 728 mmHg 49%
    23:00 +14°C° 0 mm 0 mps 727 mmHg 51%

    Day after tomorrow, 19 December, Wednesday

    Time Temperature Precipitation Wind Pressure Humidity
    00:00 +14°C° 0 mm 0 mps 727 mmHg 52%
    01:00 +13°C° 0 mm 0 mps 727 mmHg 53%
    02:00 +13°C° 0 mm 0 mps 727 mmHg 53%
    03:00 +13°C° 0 mm 0 mps 727 mmHg 54%
    04:00 +13°C° 0 mm 0 mps 727 mmHg 55%
    05:00 +12°C° 0 mm 0 mps 727 mmHg 55%
    06:00 +14°C° 0 mm 0 mps 727 mmHg 51%
    07:00 +15°C° 0 mm 0 mps 728 mmHg 47%
    08:00 +18°C° 0 mm 1 mps 729 mmHg 43%
    09:00 +19°C° 0 mm 1 mps 729 mmHg 39%
    10:00 +20°C° 0 mm 1 mps 729 mmHg 36%
    11:00 +21°C° 0 mm 1 mps 729 mmHg 32%
    12:00 +21°C° 0 mm 2 mps 728 mmHg 30%
    13:00 +21°C° 0 mm 2 mps 727 mmHg 29%
    14:00 +21°C° 0 mm 2 mps 727 mmHg 27%
    15:00 +20°C° 0 mm 2 mps 727 mmHg 30%
    16:00 +19°C° 0 mm 2 mps 727 mmHg 34%
    17:00 +18°C° 0 mm 2 mps 727 mmHg 37%
    18:00 +17°C° 0 mm 2 mps 727 mmHg 38%
    19:00 +17°C° 0 mm 2 mps 727 mmHg 40%
    20:00 +16°C° 0 mm 2 mps 728 mmHg 41%
    21:00 +16°C° 0 mm 1 mps 728 mmHg 42%
    22:00 +15°C° 0 mm 1 mps 728 mmHg 43%
    23:00 +15°C° 0 mm 1 mps 727 mmHg 44%

    20 December, Thursday

    Time Temperature Precipitation Wind Pressure Humidity
    00:00 +14°C° 0 mm 1 mps 727 mmHg 45%
    01:00 +14°C° 0 mm 1 mps 727 mmHg 46%
    02:00 +13°C° 0 mm 1 mps 727 mmHg 47%
    03:00 +13°C° 0 mm 1 mps 727 mmHg 48%
    04:00 +13°C° 0 mm 1 mps 727 mmHg 50%
    05:00 +12°C° 0 mm 1 mps 727 mmHg 52%
    06:00 +14°C° 0 mm 1 mps 727 mmHg 47%
    07:00 +15°C° 0 mm 1 mps 728 mmHg 43%
    08:00 +18°C° 0 mm 1 mps 728 mmHg 39%
    09:00 +19°C° 0 mm 1 mps 729 mmHg 35%
    10:00 +20°C° 0 mm 2 mps 729 mmHg 30%
    11:00 +21°C° 0 mm 2 mps 729 mmHg 26%
    12:00 +21°C° 0 mm 2 mps 728 mmHg 25%
    13:00 +22°C° 0 mm 3 mps 728 mmHg 24%
    14:00 +22°C° 0 mm 3 mps 727 mmHg 23%
    15:00 +21°C° 0 mm 3 mps 728 mmHg 28%
    16:00 +20°C° 0 mm 3 mps 728 mmHg 32%
    17:00 +18°C° 0 mm 2 mps 728 mmHg 37%
    18:00 +18°C° 0 mm 2 mps 728 mmHg 40%
    19:00 +17°C° 0 mm 2 mps 728 mmHg 44%
    20:00 +16°C° 0 mm 2 mps 729 mmHg 48%
    21:00 +16°C° 0 mm 2 mps 729 mmHg 51%
    22:00 +15°C° 0 mm 2 mps 728 mmHg 53%
    23:00 +15°C° 0 mm 1 mps 728 mmHg 56%

    21 December, Friday

    Time Temperature Precipitation Wind Pressure Humidity
    00:00 +14°C° 0 mm 1 mps 728 mmHg 57%
    01:00 +14°C° 0 mm 1 mps 728 mmHg 58%
    02:00 +14°C° 0 mm 1 mps 728 mmHg 59%
    03:00 +13°C° 0 mm 1 mps 728 mmHg 59%
    04:00 +13°C° 0 mm 1 mps 728 mmHg 59%
    05:00 +13°C° 0 mm 1 mps 728 mmHg 59%
    06:00 +14°C° 0 mm 1 mps 728 mmHg 54%
    07:00 +16°C° 0 mm 1 mps 729 mmHg 49%
    08:00 +18°C° 0 mm 1 mps 729 mmHg 44%
    09:00 +20°C° 0 mm 1 mps 730 mmHg 38%
    10:00 +20°C° 0 mm 2 mps 730 mmHg 33%
    11:00 +23°C° 0 mm 2 mps 730 mmHg 27%
    12:00 +23°C° 0 mm 2 mps 729 mmHg 26%
    13:00 +24°C° 0 mm 2 mps 729 mmHg 24%
    14:00 +24°C° 0 mm 2 mps 729 mmHg 23%
    15:00 +23°C° 0 mm 2 mps 729 mmHg 27%
    16:00 +21°C° 0 mm 1 mps 729 mmHg 31%
    17:00 +20°C° 0 mm 1 mps 729 mmHg 35%
    18:00 +19°C° 0 mm 1 mps 729 mmHg 36%
    19:00 +18°C° 0 mm 1 mps 729 mmHg 38%
    20:00 +16°C° 0 mm 0 mps 730 mmHg 40%
    21:00 +15°C° 0 mm 0 mps 729 mmHg 41%
    22:00 +15°C° 0 mm 0 mps 729 mmHg 42%
    23:00 +15°C° 0 mm 0 mps 729 mmHg 43%

    22 December, Saturday

    Time Temperature Precipitation Wind Pressure Humidity
    00:00 +14°C° 0 mm 0 mps 729 mmHg 43%
    01:00 +14°C° 0 mm 0 mps 729 mmHg 44%
    02:00 +14°C° 0 mm 0 mps 728 mmHg 45%
    03:00 +13°C° 0 mm 0 mps 728 mmHg 45%
    04:00 +13°C° 0 mm 0 mps 728 mmHg 45%
    05:00 +13°C° 0 mm 0 mps 728 mmHg 46%
    06:00 +14°C° 0 mm 0 mps 729 mmHg 43%
    07:00 +18°C° 0 mm 1 mps 729 mmHg 39%
    08:00 +19°C° 0 mm 1 mps 730 mmHg 36%
    09:00 +21°C° 0 mm 1 mps 730 mmHg 32%
    10:00 +22°C° 0 mm 1 mps 730 mmHg 28%
    11:00 +24°C° 0 mm 1 mps 730 mmHg 23%
    12:00 +24°C° 0 mm 2 mps 729 mmHg 23%
    13:00 +25°C° 0 mm 2 mps 729 mmHg 22%
    14:00 +25°C° 0 mm 3 mps 729 mmHg 21%
    15:00 +24°C° 0 mm 2 mps 729 mmHg 24%
    16:00 +21°C° 0 mm 2 mps 729 mmHg 27%
    17:00 +20°C° 0 mm 2 mps 729 mmHg 30%
    18:00 +20°C° 0 mm 1 mps 729 mmHg 33%
    19:00 +19°C° 0 mm 1 mps 729 mmHg 36%
    20:00 +18°C° 0 mm 1 mps 729 mmHg 38%
    21:00 +15°C° 0 mm 0 mps 729 mmHg 39%
    22:00 +15°C° 0 mm 0 mps 729 mmHg 40%
    23:00 +14°C° 0 mm 0 mps 729 mmHg 41%
    Show more